Location: Grandview
(34.8900°N, 117.1058°W)
Time: 18:52:36
(UTC-07:00)

Vanguard 2 - Visible Passes

Search period start: 16 October 2017 00:00
Search period end: 26 October 2017 00:00
Orbit: 554 x 2939 km, 32.9° (Epoch: 16 October)

Date Brightness Start Highest point End Pass type
(mag) Time Alt. Az. Time Alt. Az. Time Alt. Az.
18 Oct 12.2 05:12:59 10° SSE 05:16:25 11° SE 05:19:42 10° SE visible
19 Oct 12.0 05:25:15 10° S 05:34:41 17° SE 05:42:57 10° ESE visible
20 Oct 11.8 05:40:31 10° S 05:52:53 24° SE 06:03:13 10° E visible
21 Oct 11.5 05:56:47 10° SSW 06:11:04 32° SSE 06:22:33 10° E visible
22 Oct 12.0 04:09:49 10° SSE 04:18:00 15° SE 04:25:47 10° ESE visible
22 Oct 11.3 06:13:38 10° SSW 06:29:15 40° SSE 06:41:25 10° E visible
23 Oct 11.8 04:24:21 10° S 04:36:04 22° SE 04:46:52 10° E visible
23 Oct 11.0 06:30:55 10° SW 06:47:27 48° SSE 07:00:00 10° E visible
24 Oct 11.5 04:40:15 10° SSW 04:54:05 29° SE 05:06:37 10° E visible
25 Oct 11.9 02:56:44 10° SSE 03:01:18 11° SE 03:05:53 10° ESE visible
25 Oct 11.3 04:56:51 10° SSW 05:12:07 37° SE 05:25:46 10° E visible
